Regional Weather Roundup
Issued by NWS

Home | Current Version | Previous Version | Graphics & Text | Print | Product List | Glossary On
Versions: 1 2 3 4 5 6 7 8 9 10 11 12 13 14 15 16 17 18 19 20 21 22 23 24 25 26 27 28 29 30 31 32 33 34 35 36 37 38 39 40 41 42 43 44 45 46 47 48 49 50
000
ASUS43 KMPX 280901
RWRMN
WEATHER ROUNDUP FOR MINNESOTA
NATIONAL WEATHER SERVICE TWIN CITIES/CHANHASSEN MN
400 AM CDT THU JUL 28 2016


NOTE: "FAIR" INDICATES FEW OR NO CLOUDS BELOW 12,000 FEET WITH NO
SIGNIFICANT WEATHER AND/OR OBSTRUCTIONS TO VISIBILITY. N/A MEANS
CURRENT SKY AND/OR WEATHER CONDITIONS ARE NOT AVAILABLE.

MNZ060>063-068>070-281000-
   Twin Cities Metro

CITY           SKY/WX    TMP DP  RH WIND       PRES   REMARKS
TWIN CITIES    CLOUDY    66  62  87 N10       29.99R
ST PAUL        CLOUDY    66  63  90 NW12      29.99S
CRYSTAL        CLOUDY    64  60  87 N9        29.98F
BLAINE         CLOUDY    64  64 100 N9        30.00S
LAKEVILLE      CLOUDY    64  64 100 N9        29.98S
EDEN PRAIRIE   CLOUDY    66  63  90 N9        29.98S
LAKEVILLE      CLOUDY    64  64 100 N9        29.98S
SOUTH ST PAUL  CLOUDY    67  64  92 N7        29.99R
LAKE ELMO      CLOUDY    64  63  94 N7        29.99F
$$
MNZ001>005-007-008-013>017-022>024-027-028-281000-
   Northwest Minnesota

CITY           SKY/WX    TMP DP  RH WIND       PRES   REMARKS
HALLOCK        CLOUDY    57  55  94 CALM      30.13R
ROSEAU         CLEAR     54  48  82 NW3       30.13R
WARROAD        CLEAR     63  57  82 E9        30.12S
THIEF RVR FALL PTCLDY    60  56  86 NE10      30.11S
CROOKSTON      MOCLDY    61  57  88 NE7       30.09S
FOSSTON        CLOUDY    59  55  88 NE3       30.09S
DETROIT LAKES  MOCLDY    63  61  94 CALM      30.08S
MOORHEAD       MOCLDY    61  59  94 CALM      30.07S
PARK RAPIDS    CLOUDY    65  61  87 N6        30.07S
MAHNOMEN       PTSUNNY   61  60  97 NE7       30.08S
$$
MNZ006-009>011-018-025>026-281000-
   North Central Minnesota

CITY           SKY/WX    TMP DP  RH WIND       PRES   REMARKS
BAUDETTE       CLEAR     56  52  86 NE6       30.11S
FLAG ISLAND    CLEAR     61  54  77 NE5       30.11F
INTL FALLS     MOCLDY    60  53  77 NE7       30.10S
WASKISH        MOCLDY    57  55  94 NE3       30.10R
BIG FORK       CLEAR     55  54  94 CALM      30.09R
LONGVILLE      PTCLDY    59  59 100 CALM      30.06S FOG
GRAND RAPIDS   CLOUDY    58  58 100 CALM      30.09S FOG
ORR            CLEAR     52  48  87 CALM      30.07S
COOK           CLEAR     52  52 100 CALM      30.09S
WALKER         FAIR      58  57  99 CALM      30.06F
$$
MNZ012-019>021-037-281000-
   Northeast Minnesota

CITY           SKY/WX    TMP DP  RH WIND       PRES   REMARKS
DULUTH         CLOUDY    60  56  86 NE6       30.06F
ELY            FOG       52  50  93 CALM      30.08S VSB 1/4
HIBBING        FOG       50  50 100 CALM      30.08S VSB 3/4
EVELETH        CLEAR     53  52  97 CALM      30.09F
DULUTH HARBOR  CLOUDY    64  59  82 NE3       30.06S
TWO HARBORS    PTCLDY    61  55  82 N5        30.05S
SILVER BAY     CLEAR     54  52  94 CALM      30.06S
GRAND MARAIS     N/A     59  53  80 N5        30.05S
$$
MNZ029>031-032-039>041-046>048-054>057-064-281000-
   West Central Minnesota

CITY           SKY/WX    TMP DP  RH WIND       PRES   REMARKS
FERGUS FALLS   CLOUDY    64  64 100 NE3       30.06F
WHEATON        CLOUDY    63  61  94 NW3       30.06S
MORRIS         MOCLDY    61  61 100 N3        30.03F
ALEXANDRIA     PTCLDY    63  61  93 N5        30.07R
ELBOW LAKE     FAIR      64  64  97 E5        30.05S
WADENA         CLOUDY    59  57  94 CALM      30.06R
GLENWOOD         N/A    N/A N/A N/A NE6       30.05S
APPLETON       PTCLDY    63  59  88 N3        30.02S
BENSON         MOCLDY    59  55  88 CALM      30.03S
ORTONVILLE     CLOUDY    63  59  88 CALM      30.03F
MADISON        CLOUDY    63  61  94 N5        30.02F
WILLMAR        FAIR      64  63  94 N5        30.04R
$$
MNZ033>034-036-042>043-049>051-058-059-281000-
   Central Minnesota

CITY           SKY/WX    TMP DP  RH WIND       PRES   REMARKS
ST CLOUD       CLOUDY    60  59  96 CALM      30.02F
SAUK CENTRE    FAIR      62  59  92 NE3       30.05R
PAYNESVILLE    PTCLDY    61  61 100 NE6       30.04R
AITKIN         CLOUDY    57  52  82 E1        30.04F VSB 1/2
PINE RIVER     CLOUDY    59  59 100 CALM      30.08F
BRAINERD       PTCLDY    60  60 100 NE3       30.04F
STAPLES        CLOUDY    61  59  94 CALM      30.05S
LONG PRAIRIE   FAIR      61  57  88 N3        30.05S
LITTLE FALLS   CLOUDY    59  55  88 CALM      30.04S
LITCHFIELD     CLOUDY    63  63 100 NE6       30.02S
BUFFALO        CLOUDY    63  60  90 N7        30.01F
MAPLE LAKE     CLOUDY    63  62  95 NE8       30.02F
HUTCHINSON     CLOUDY    64  63  95 N6        30.02S
$$
MNZ037-044-045-052-053-281000-
   East Central Minnesota

CITY           SKY/WX    TMP DP  RH WIND       PRES   REMARKS
PRINCETON        N/A     61  57  88 N5        30.02F
MORA           CLOUDY    55  54  94 CALM      30.05S
CAMBRIDGE      CLOUDY    63  55  77 N3        30.00F
RUSH CITY      LGT RAIN  60  58  94 N5        30.03S
MOOSE LAKE     CLOUDY    54  52  94 CALM      30.04S
HINCKLEY       CLOUDY    59  59 100 N7        30.03F
CLOQUET        CLOUDY    57  55  94 N3        30.05F
MCGREGOR       CLOUDY    59  57  94 CALM      30.06F
$$
MNZ071>073-080-081-089-090-097-098-281000-
   Southwest Minnesota

CITY           SKY/WX    TMP DP  RH WIND       PRES   REMARKS
MONTEVIDEO     PTCLDY    61  57  88 NE3       30.04S
GRANITE FALLS  CLOUDY    63  61  93 N5        30.03F
CANBY          CLOUDY    63  59  88 W6        30.04F
MARSHALL       CLOUDY    60  58  92 NW6       30.03F
REDWOOD FALLS  CLOUDY    64  61  90 NW6       30.00F
OLIVIA         PTCLDY    61  59  94 N5        30.01S
PIPESTONE      CLOUDY    63  57  82 N3        30.04S
WINDOM         CLEAR     63  61  94 NW6       30.01F
WORTHINGTON    CLEAR     61  58  90 N5        30.03S
JACKSON        CLEAR     63  59  88 W3        30.02S
TRACY          CLOUDY    62  60  93 NW5       30.03S
SLAYTON        PTCLDY    60  57  90 NW5       30.04S
$$
MNZ065>067-074>077-082>085-091>093-281000-
   South Central Minnesota

CITY           SKY/WX    TMP DP  RH WIND       PRES   REMARKS
MANKATO        CLOUDY    64  61  88 N8        29.99S
NEW ULM        CLOUDY    64  64 100 NE5       30.00S
ST JAMES       MOCLDY    61  59  94 N7        30.00F
FAIRMONT       MOCLDY    64  57  77 N5        29.99S
GLENCOE        CLOUDY    65  64  99 N5        29.99F
FARIBAULT      CLOUDY    66  64  94 N7        29.98S
OWATONNA       CLOUDY    66  64  94 N6        29.97S
WASECA         CLOUDY    63  61  94 N7        30.00S
ALBERT LEA     CLOUDY    64  64 100 NW7       29.97S FOG
$$
MNZ078>079-086>088-094>096-281000-
   Southeast Minnesota

CITY           SKY/WX    TMP DP  RH WIND       PRES   REMARKS
ROCHESTER      CLOUDY    67  66  97 N9        29.96R
RED WING       CLOUDY    66  64  94 N7        29.95S
STANTON        CLOUDY    68  64  88 VRB5      29.96S
DODGE CENTER   CLOUDY    66  64  94 N8        29.97S
WINONA         CLOUDY    70  66  88 CALM      29.93S
AUSTIN         MOCLDY    66  63  88 N9        29.95F
PRESTON        CLOUDY    66  64  94 N7        29.95R
$$
ABBREVIATIONS USED IN REMARKS
   TC - TEMPERATURES IN CELSIUS
  WCI - WIND CHILL INDEX
   HX - HEAT INDEX
  VSB - VISIBILITY
$$




USA.gov is the U.S. government's official web portal to all federal, state and local government web resources and services.